Regional Weather Roundup
Issued by NWS Kansas City/Pleasant Hill, MO

Home | Current Version | Previous Version | Text Only | Print | Product List | Glossary On
Versions: 1 2 3 4 5 6 7 8 9 10 11 12 13 14 15 16 17 18 19 20 21 22 23 24 25 26 27 28 29 30 31 32 33 34 35 36 37 38 39 40 41 42 43 44 45 46 47 48 49 50
000
ASUS43 KEAX 311204
RWREAX

WEATHER ROUNDUP FOR EASTERN KANSAS AND NORTHWEST MISSOURI
NATIONAL WEATHER SERVICE KANSAS CITY/PLEASANT HILL MO
700 AM CDT FRI OCT 31 2014

KSZ040-057-103>105-MOZ028-029-037-043-311300-
...KANSAS CITY METROPOLITAN AREA...

CITY           SKY/WX    TMP DP  RH WIND       PRES   REMARKS
K.C. INTL      PTCLDY    35  25  66 N16G26    30.40R WCI  25
6HR MIN TEMP:  35; 6HR MAX TEMP:  50;

K.C. DOWNTOWN  MOCLDY    39  26  59 N15G30    30.40R WCI  31
6HR MIN TEMP:  39; 6HR MAX TEMP:  52; 6HR PCP: TRACE;

LEES SUMMIT    CLOUDY    38  27  64 N24G35    30.38R WCI  27
6HR MIN TEMP:  38; 6HR MAX TEMP:  51;

OLATHE - IXD   CLOUDY    38  29  70 N24       30.39R WCI  27
6HR MIN TEMP:  38; 6HR MAX TEMP:  49;

OLATHE - OJC   CLOUDY    39  29  67 N18       30.37R WCI  30
6HR MIN TEMP:  39; 6HR MAX TEMP:  50;

LAWRENCE       FLURRIES  36  26  67 N17       30.44R WCI  26

$$

MOZ001>008-011>017-020>025-030>033-038>040-044>046-053-054-311300-
...NORTHERN AND CENTRAL MISSOURI...

CITY           SKY/WX    TMP DP  RH WIND       PRES   REMARKS
ST. JOSEPH     CLEAR     34  22  61 N17       30.45R WCI  23
6HR MIN TEMP:  33; 6HR MAX TEMP:  51;

MOSBY            N/A     37  27  65 NW15      30.40R WCI  28
WHITEMAN AFB   CLOUDY    42  31  66 N20G26    30.31R WCI  33
6HR MIN TEMP:  42; 6HR MAX TEMP:  51;

CLINTON        CLOUDY    46  36  66 N17G24    30.31R
SEDALIA        LGT RAIN  43  30  60 N28G33    30.32R WCI  33
6HR MIN TEMP:  43; 6HR MAX TEMP:  51; 6HR PCP: TRACE;

WARSAW         NOT AVBL
MARSHALL       PTCLDY    41  30  65 N18G25    30.35R WCI  32
CHILLICOTHE      N/A     36  24  62 N9G16     30.39R WCI  29
6HR MIN TEMP:  36; 6HR MAX TEMP:  51;

MOBERLY        CLEAR     39  27  60 N14G24    30.32R WCI  31
KIRKSVILLE     CLEAR     34  19  54 N26G33    30.35R WCI  21
6HR MIN TEMP:  34; 6HR MAX TEMP:  50; 6HR PCP: TRACE;


$$

MOZ041-047>049-056>058-063>065-088>090-097-311300-
...EASTERN AND SOUTHERN MISSOURI...

CITY           SKY/WX    TMP DP  RH WIND       PRES   REMARKS
ST. LOUIS INTL MOCLDY    49  40  71 N12       30.16R
6HR MIN TEMP:  47; 6HR MAX TEMP:  49;

SPIRIT OF STL  CLOUDY    48  40  73 NW10      30.17R
COLUMBIA       CLOUDY    45  36  70 N22G29    30.26R
JEFFERSON CITY CLOUDY    49  38  65 NW16G23   30.25R
MEXICO         CLOUDY    45  36  70 NW21G28   30.26R
ROLLA          CLOUDY    45  40  82 N14       30.19R
LEBANON        MOCLDY    48  39  71 N12G23    30.23R
OSAGE BEACH    CLOUDY    48  37  66 N12G24    30.24R
SPRINGFIELD    CLOUDY    48  39  71 N17G28    30.23R
BRANSON        CLOUDY    46  39  76 NW12G20   30.21R
NEVADA         CLOUDY    45  36  70 N17G24    30.33R
JOPLIN         CLOUDY    46  41  82 N12       30.30R
WEST PLAINS    CLEAR     46  40  79 N16G26    30.17R

$$

IAZ060-094-KSZ022-034>040-054-083-096-NEZ052-066-093-311300-
...KANSAS...SOUTHEAST NEBRASKA AND IOWA...

CITY           SKY/WX    TMP DP  RH WIND       PRES   REMARKS
TOPEKA         CLOUDY    36  26  67 N18G24    30.47R WCI  26
6HR MIN TEMP:  35; 6HR MAX TEMP:  50;

MANHATTAN      CLOUDY    36  27  69 NE21G26   30.49R WCI  25
EMPORIA        MOCLDY    38  30  73 N16G25    30.41R WCI  29
CHANUTE        CLOUDY    46  37  71 N15G28    30.36R
WICHITA        MOCLDY    45  34  65 N17G25    30.41R
OMAHA          CLEAR     29  21  72 N14       30.54R WCI  18
LINCOLN        CLEAR     28  20  71 N14       30.55R WCI  17
FALLS CITY     CLEAR     32  22  66 N10G22    30.48R WCI  24
LAMONI         CLEAR     30  17  58 N20       30.40R WCI  17
DES MOINES     CLEAR     31  16  54 N14G22    30.44R WCI  21

$$




USA.gov is the U.S. government's official web portal to all federal, state and local government web resources and services.